Location: Madden
(51.3728°N, 114.3297°W)
Time: 06:37:13
(UTC+00:00)

PCSat - Pass Details

Date: 09 December 2023
Orbit: 784 x 791 km, 67.0° (Epoch: 02 March)

Event Time Altitude Azimuth Distance (km) Brightness Sun altitude
Exits shadow 12:07:46 31° 17° (NNE) 1,354 10.8 -30.3°
Drops below altitude 10° 12:10:43 10° 33° (NNE) 2,362 12.4 -29.8°
Sets 12:13:12 0° 37° (NE) 3,295 13.3 -29.4°
